Weather reports worldwide

Advertisment
Dax, France (7603): temperature & dewpoint: 16.06.2018 20:00:00 - 22.06.2018 20:00:00 (CEST)Dax, France (7603): temperature 5cm: 16.06.2018 20:00:00 - 22.06.2018 20:00:00 (CEST)Dax, France (7603): temperature -20cm & temperature -100cm: 16.06.2018 20:00:00 - 22.06.2018 20:00:00 (CEST)Dax, France (7603): wind speed & gusts: 16.06.2018 20:00:00 - 22.06.2018 20:00:00 (CEST)Dax, France (7603): wind direction: 16.06.2018 20:00:00 - 22.06.2018 20:00:00 (CEST)Dax, France (7603): reduced air pressure: 16.06.2018 20:00:00 - 22.06.2018 20:00:00 (CEST)Dax, France (7603): visibility: 16.06.2018 20:00:00 - 22.06.2018 20:00:00 (CEST)Dax, France (7603): sunshine duration: 16.06.2018 20:00:00 - 22.06.2018 20:00:00 (CEST)Dax, France (7603): precipitation: 16.06.2018 20:00:00 - 22.06.2018 20:00:00 (CEST)
Date & Time tt [°C] td [°C] tt 5cm [°C] tt -20cm [°C] tt -100cm [°C] ff [km/h] ff [kn] fx [km/h] fx [kn] dd ppp [hPa] vv [km] sd [min] rr [mm]
22.06.2018 20:00:00 27,0 8,9 28,2 - 18,9 9 5 23 12 NE 1020,0 - 56 0,0
22.06.2018 19:00:00 27,4 11,0 29,4 - 18,9 11 6 24 13 NE 1019,8 - 60 0,0
22.06.2018 18:00:00 27,6 11,6 31,0 - 18,9 11 6 24 13 NE 1020,0 - 60 0,0
22.06.2018 17:00:00 27,8 13,0 28,8 - 18,9 9 5 21 12 NW 1020,0 - 51 0,0
22.06.2018 16:00:00 27,2 14,9 29,9 - 18,8 8 4 20 11 NE 1020,4 - 51 0,0
22.06.2018 15:00:00 26,6 16,5 27,3 - 18,8 6 3 17 9 NW 1020,6 10 34 0,0
22.06.2018 14:00:00 24,9 16,1 26,6 - 18,8 9 5 16 9 NW 1021,2 9 34 0,0
22.06.2018 13:00:00 24,5 17,5 26,2 - 18,8 8 4 16 8 NNW 1021,5 9 41 0,0
22.06.2018 12:00:00 23,1 18,6 24,3 - 18,8 5 3 11 6 NW 1021,6 7 6 0,0
22.06.2018 11:00:00 22,0 18,6 22,2 - 18,8 3 2 11 6 NW 1021,5 6 4 0,0
22.06.2018 10:00:00 20,8 18,4 20,7 - 18,8 6 4 11 6 N 1021,5 3,0 0 0,0
22.06.2018 09:00:00 20,4 19,2 19,9 - 18,8 5 3 8 5 W 1021,4 3,0 0 0,0
22.06.2018 08:00:00 20,2 19,0 19,9 - 18,8 5 3 10 5 WNW 1021,1 3,0 0 0,0
22.06.2018 07:00:00 20,2 19,0 20,1 - 18,8 5 3 13 7 WNW 1021,0 5 0 0,0
22.06.2018 06:00:00 20,3 19,0 20,3 - 18,8 6 3 14 8 W 1020,8 - 0 0,0
22.06.2018 05:00:00 20,6 19,4 20,6 - 18,8 8 4 15 8 WSW 1020,7 - 0 0,0
22.06.2018 04:00:00 20,5 19,7 20,4 - 18,8 6 3 11 6 WSW 1020,7 - 0 0,0
22.06.2018 03:00:00 20,5 19,5 20,4 - 18,7 9 5 15 8 WSW 1020,7 - 0 0,0
22.06.2018 02:00:00 20,5 19,2 20,4 - 18,7 8 5 14 8 WSW 1021,0 - 0 0,0
22.06.2018 01:00:00 20,4 18,9 20,3 - 18,7 9 5 16 9 SW 1021,2 - 0 0,0
22.06.2018 00:00:00 20,4 18,7 20,3 - 18,7 11 6 18 10 SW 1021,3 - 0 0,0
21.06.2018 23:00:00 20,5 18,3 20,4 - 18,7 7 4 20 11 SW 1021,4 - 0 0,0
21.06.2018 22:00:00 20,5 17,9 20,5 - 18,7 12 6 24 13 WSW 1021,1 - 0 0,0
21.06.2018 21:00:00 21,3 18,1 21,3 - 18,7 10 5 25 13 WSW 1020,7 - 5 0,0
21.06.2018 20:00:00 22,2 18,0 22,6 - 18,7 16 9 27 15 WSW 1020,4 - 17 0,0
21.06.2018 19:00:00 23,8 18,2 24,5 - 18,7 10 5 22 12 W 1020,1 - 33 0,0
21.06.2018 18:00:00 23,0 18,1 23,8 - 18,7 11 6 26 14 W 1020,5 - 9 0,0
21.06.2018 17:00:00 22,8 18,1 23,9 - 18,7 11 6 26 14 W 1020,6 8 0 0,0
21.06.2018 16:00:00 23,2 18,1 23,5 - 18,7 12 7 27 14 W 1020,8 8 0 0,0
21.06.2018 15:00:00 22,4 18,4 23,5 - 18,7 12 7 22 12 W 1020,7 6 0 0,0
21.06.2018 14:00:00 22,2 18,4 23,2 - 18,7 13 7 24 13 WNW 1020,6 6 0 0,0
21.06.2018 13:00:00 22,3 18,5 23,6 - 18,7 12 7 22 12 W 1020,6 6 2 0,0
21.06.2018 12:00:00 22,2 18,4 22,2 - 18,6 7 4 16 9 WSW 1020,5 6 0 0,0
21.06.2018 11:00:00 21,5 18,5 21,3 - 18,6 10 5 16 9 WSW 1020,3 6 0 0,0
21.06.2018 10:00:00 20,8 18,4 20,6 - 18,6 6 3 15 8 WSW 1020,4 6 0 0,0
21.06.2018 09:00:00 20,2 18,1 20,1 - 18,6 9 5 19 10 WSW 1020,4 6 0 0,0
21.06.2018 08:00:00 20,0 18,1 19,9 - 18,6 8 5 24 13 WSW 1020,2 6 0 0,0
21.06.2018 07:00:00 20,0 18,1 19,9 - 18,6 11 6 23 13 W 1019,8 5 0 0,0
21.06.2018 06:00:00 20,1 18,4 20,1 - 18,6 13 7 22 12 W 1019,4 - 0 0,0
21.06.2018 05:00:00 20,1 18,4 20,1 - 18,6 10 5 22 12 W 1019,2 - 0 0,0
21.06.2018 04:00:00 20,2 18,3 20,1 - 18,6 13 7 27 15 W 1019,3 - 0 0,0
21.06.2018 03:00:00 20,3 18,4 20,2 - 18,6 14 7 30 16 W 1019,5 - 0 0,0
21.06.2018 02:00:00 20,4 18,9 20,4 - 18,6 12 6 26 14 W 1019,5 - 0 0,0
21.06.2018 01:00:00 20,4 18,9 20,3 - 18,6 9 5 19 10 W 1019,5 - 0 0,0
21.06.2018 00:00:00 20,5 18,8 20,5 - 18,5 10 6 26 14 W 1019,2 - 0 0,0
20.06.2018 23:00:00 20,8 19,1 20,6 - 18,5 10 5 20 11 W 1018,9 - 0 0,0
20.06.2018 22:00:00 21,6 18,8 21,3 - 18,5 7 4 20 11 W 1017,8 - 18 0,0
20.06.2018 21:00:00 23,5 18,8 23,8 - 18,5 13 7 24 13 W 1017,5 - 60 0,0
20.06.2018 20:00:00 25,6 20,2 26,7 - 18,5 14 8 28 15 WSW 1016,9 - 57 0,0
20.06.2018 19:00:00 29,3 21,3 30,3 - 18,5 15 8 24 13 W 1016,5 - 60 0,0
20.06.2018 18:00:00 32,5 21,7 35,2 - 18,5 4 2 16 9 W 1016,5 - 60 0,0
20.06.2018 17:00:00 32,0 17,5 35,1 - 18,5 9 5 16 9 E 1016,5 20 60 0,0
20.06.2018 16:00:00 31,4 17,7 34,9 - 18,5 7 4 17 9 E 1016,9 20 60 0,0
20.06.2018 15:00:00 31,2 19,2 33,5 21,6 18,5 7 4 20 11 ENE 1017,0 10 60 0,0
20.06.2018 14:00:00 30,3 19,7 32,6 - 18,5 7 4 19 10 E 1017,4 20 60 0,0
20.06.2018 13:00:00 28,7 18,2 31,6 - 18,5 9 5 17 9 E 1017,9 15 60 0,0
20.06.2018 12:00:00 27,7 19,5 28,2 - 18,5 6 4 16 9 ESE 1018,1 15 60 0,0
20.06.2018 11:00:00 25,1 18,1 26,8 - 18,4 11 6 17 9 E 1018,3 15 60 0,0
20.06.2018 10:00:00 22,8 19,2 23,9 - 18,4 4 2 8 5 ESE 1018,6 10 60 0,0
20.06.2018 09:00:00 20,2 18,7 18,0 - 18,4 4 2 8 4 - 1018,6 3,0 60 0,0
20.06.2018 08:00:00 17,1 16,8 15,7 - 18,4 3 2 5 3 E 1018,5 0,9 60 0,0
20.06.2018 07:00:00 15,9 15,4 14,6 - 18,4 0 0 5 3 N 1018,5 0,8 7 0,0
20.06.2018 06:00:00 15,6 14,8 14,6 - 18,4 4 2 5 3 SE 1018,2 - 0 0,0
20.06.2018 05:00:00 16,4 15,8 15,2 - 18,4 0 0 4 2 N 1018,4 - 0 0,2
20.06.2018 04:00:00 17,2 16,6 16,0 - 18,4 2 1 4 2 S 1018,7 - 0 0,0
20.06.2018 03:00:00 18,0 17,2 17,1 - 18,4 2 1 7 4 SSW 1019,1 - 0 0,0
20.06.2018 02:00:00 18,7 17,5 18,0 - 18,4 4 2 11 6 WSW 1019,6 - 0 0,0
20.06.2018 01:00:00 19,0 17,5 17,6 - 18,4 3 1 6 3 SSW 1019,8 - 0 0,0
20.06.2018 00:00:00 19,7 17,3 18,8 - 18,4 4 2 9 5 SW 1019,9 - 0 0,0
19.06.2018 23:00:00 22,0 18,2 21,1 - 18,4 6 3 12 7 N 1019,8 - 0 0,0
19.06.2018 22:00:00 23,2 18,1 22,1 - 18,4 4 2 12 6 N 1019,6 - 19 0,0
19.06.2018 21:00:00 24,8 18,5 25,0 - 18,4 6 4 14 8 NW 1019,8 - 60 0,0
19.06.2018 20:00:00 25,5 18,2 25,9 - 18,4 9 5 17 9 NW 1020,1 - 46 0,0
19.06.2018 19:00:00 25,7 17,6 27,0 - 18,4 11 6 18 10 NW 1020,4 - 39 0,0
19.06.2018 18:00:00 26,5 15,2 27,8 - 18,4 6 4 16 8 SSE 1021,0 - 32 0,0
19.06.2018 17:00:00 26,6 16,5 27,2 - 18,4 6 4 16 9 SE 1021,4 15 36 0,0
19.06.2018 16:00:00 25,5 16,1 26,9 20,6 18,4 8 5 19 10 ESE 1021,9 10 9 0,0
19.06.2018 15:00:00 25,3 17,0 26,1 20,4 18,4 6 3 20 11 ESE 1022,2 9 19 0,0
19.06.2018 14:00:00 24,5 16,7 27,3 20,1 18,5 6 3 22 12 SE 1022,7 9 54 0,0
19.06.2018 13:00:00 23,2 17,0 24,1 - 18,4 5 3 15 8 NE 1023,5 8 35 0,0
19.06.2018 12:00:00 22,0 16,3 23,1 - 18,4 6 3 16 9 NNE 1024,0 7 43 0,0
19.06.2018 11:00:00 20,5 15,7 22,5 - 18,4 9 5 19 11 ENE 1024,5 5 52 0,0
19.06.2018 10:00:00 18,5 15,0 18,8 - 18,4 5 3 9 5 NE 1025,0 6 4 0,0
19.06.2018 09:00:00 17,5 14,9 16,5 - 18,4 4 2 13 7 ENE 1025,3 6 8 0,0
19.06.2018 08:00:00 16,3 14,1 16,1 20,1 18,4 9 5 13 7 NE 1025,4 6 0 0,0
19.06.2018 07:00:00 16,2 13,9 15,9 - 18,4 7 4 14 8 NNE 1025,4 6 0 0,0
19.06.2018 06:00:00 16,0 13,8 15,3 20,1 18,4 5 3 15 8 NNE 1025,4 - 0 0,0
19.06.2018 05:00:00 16,2 13,5 15,6 - 18,4 6 3 16 8 NNE 1025,4 - 0 0,0
19.06.2018 04:00:00 16,8 14,8 16,2 - 18,4 6 3 12 6 NE 1025,7 - 0 0,0
19.06.2018 03:00:00 16,7 15,6 16,3 - 18,4 4 2 6 3 NNW 1025,8 - 0 0,0
19.06.2018 02:00:00 16,6 15,5 16,0 - 18,4 0 0 4 2 N 1026,1 - 0 0,0
19.06.2018 01:00:00 16,0 15,2 15,0 - 18,4 0 0 4 2 N 1026,2 - 0 0,0
19.06.2018 00:00:00 16,3 15,2 15,4 - 18,4 2 1 6 3 NW 1026,5 - 0 0,0
18.06.2018 23:00:00 17,1 15,4 16,3 20,7 18,4 3 2 7 4 WNW 1026,5 - 0 0,0
18.06.2018 22:00:00 18,1 15,7 17,4 - 18,4 4 2 12 7 NW 1026,1 - 4 0,0
18.06.2018 21:00:00 19,2 16,4 19,2 21,2 18,4 8 4 16 9 W 1025,9 - 12 0,0
18.06.2018 20:00:00 20,1 16,3 21,4 21,0 18,4 10 6 25 13 WNW 1025,7 - 57 0,0
18.06.2018 19:00:00 20,0 16,6 20,8 20,6 18,4 13 7 23 12 NW 1025,8 10 2 0,0
18.06.2018 18:00:00 20,0 17,0 18,8 - 18,4 9 5 21 11 W 1026,1 10 0 0,0
18.06.2018 17:00:00 20,4 16,8 19,0 - 18,4 10 5 21 11 W 1026,2 7 6 0,2
18.06.2018 16:00:00 20,5 17,1 19,0 20,0 18,4 11 6 21 12 W 1026,5 10 0 0,0
18.06.2018 15:00:00 20,4 15,8 19,3 19,9 18,4 11 6 21 12 W 1026,4 8 7 0,0
18.06.2018 14:00:00 18,7 17,2 18,0 19,8 18,4 10 5 21 12 W 1026,7 6 5 0,0
18.06.2018 13:00:00 18,7 15,9 19,6 19,8 18,4 10 5 18 10 WSW 1026,8 6 6 0,0
18.06.2018 12:00:00 19,0 16,2 19,1 19,8 18,4 9 5 16 9 WSW 1026,9 8 0 0,0
18.06.2018 11:00:00 18,1 15,2 17,8 19,8 18,4 8 4 15 8 SSW 1027,1 6 0 0,0
18.06.2018 10:00:00 16,6 14,6 16,5 19,9 18,4 5 3 12 7 SSW 1027,2 5 0 0,0
18.06.2018 09:00:00 16,1 14,1 16,1 19,9 18,4 6 3 10 5 S 1027,0 6 0 0,0
18.06.2018 08:00:00 15,2 13,7 15,0 20,0 18,4 6 3 12 6 S 1026,6 6 0 0,0
18.06.2018 07:00:00 14,9 13,6 14,5 20,0 18,4 5 3 9 5 S 1026,4 6 0 0,0
18.06.2018 06:00:00 14,8 13,7 14,5 20,1 18,4 3 2 9 5 S 1026,2 - 0 0,0
18.06.2018 05:00:00 14,6 13,5 13,8 20,3 18,4 4 2 8 5 S 1026,1 - 0 0,0
18.06.2018 04:00:00 13,8 13,0 13,1 20,4 18,4 8 4 10 6 S 1026,1 - 0 0,0
18.06.2018 03:00:00 13,8 12,9 12,9 20,5 18,4 3 2 5 3 SSW 1026,3 - 0 0,0
18.06.2018 02:00:00 13,7 12,4 13,0 20,7 18,4 0 0 6 3 N 1026,6 - 0 0,0
18.06.2018 01:00:00 14,3 12,8 13,3 20,8 18,4 3 2 8 4 S 1026,6 - 0 0,0
18.06.2018 00:00:00 14,8 12,3 13,6 20,9 18,4 5 3 7 4 S 1026,5 - 0 0,0
17.06.2018 23:00:00 15,7 12,1 15,1 21,0 18,4 4 2 10 5 W 1026,4 - 0 0,0
17.06.2018 22:00:00 16,4 12,0 15,5 21,0 18,3 4 2 13 7 W 1025,9 - 6 0,0
17.06.2018 21:00:00 18,2 11,5 18,1 21,0 18,4 6 4 21 11 WNW 1025,7 - 52 0,0
17.06.2018 20:00:00 19,7 12,2 20,5 20,9 18,3 10 5 24 13 WNW 1025,5 - 55 0,0
17.06.2018 19:00:00 20,9 12,3 21,3 - 18,4 14 8 28 15 W 1025,2 - 46 0,0
17.06.2018 18:00:00 21,5 12,3 22,4 - 18,3 15 8 27 14 W 1024,8 - 46 0,0
17.06.2018 17:00:00 21,8 13,4 22,1 20,4 18,4 13 7 27 15 WNW 1024,7 - 37 0,0
17.06.2018 16:00:00 20,9 12,8 21,8 20,2 18,4 13 7 31 17 WNW 1024,8 - 34 0,0
17.06.2018 15:00:00 21,1 13,3 21,8 20,0 18,3 16 8 28 15 W 1024,7 - 21 0,0
17.06.2018 14:00:00 20,4 13,6 21,2 - 18,3 13 7 26 14 W 1024,7 - 14 0,0
17.06.2018 13:00:00 19,7 13,6 20,7 - 18,3 8 4 21 12 SW 1024,7 - 8 0,0
17.06.2018 12:00:00 19,4 15,5 19,2 19,7 18,3 9 5 16 9 SSW 1024,6 - 42 0,0
17.06.2018 11:00:00 17,3 14,9 16,4 19,7 18,3 8 4 14 8 SSE 1024,8 - 12 0,0
17.06.2018 10:00:00 15,5 15,0 15,3 - 18,3 8 4 11 6 S 1025,1 - 0 0,6
17.06.2018 09:00:00 15,2 14,4 15,1 19,8 18,3 7 4 10 6 S 1024,6 - 0 0,0
17.06.2018 08:00:00 14,8 13,7 14,5 19,9 18,3 5 3 6 4 SE 1024,0 - 0 0,0
17.06.2018 07:00:00 14,4 13,4 14,0 20,0 18,3 3 2 7 4 SSE 1023,5 - 0 0,0
17.06.2018 06:00:00 14,1 13,5 13,4 20,1 18,3 6 3 9 5 S 1023,1 - 0 0,2
17.06.2018 05:00:00 13,7 13,2 12,0 20,3 18,3 4 2 6 4 S 1022,9 - 0 0,0
17.06.2018 04:00:00 13,5 12,9 12,2 20,4 18,3 2 1 5 3 S 1023,0 - 0 0,0
17.06.2018 03:00:00 13,9 13,3 12,6 20,6 18,3 4 2 6 3 S 1023,0 - 0 0,0
17.06.2018 02:00:00 14,3 13,2 12,9 20,7 18,3 0 0 5 3 N 1023,1 - 0 0,0
17.06.2018 01:00:00 15,1 13,0 13,8 20,8 18,3 2 1 5 3 SW 1023,3 - 0 0,0
17.06.2018 00:00:00 15,5 12,8 14,3 20,9 18,3 0 0 6 3 N 1023,2 - 0 0,0
16.06.2018 23:00:00 16,5 12,1 15,9 21,0 18,3 4 2 6 4 WSW 1023,0 - 0 0,0
16.06.2018 22:00:00 16,9 11,2 16,2 - 18,3 5 3 13 7 WNW 1022,3 - 18 0,0
16.06.2018 21:00:00 18,9 11,0 19,1 - 18,3 8 5 19 11 NW 1021,9 - 57 0,0
16.06.2018 20:00:00 19,2 10,5 19,7 21,0 18,3 12 7 27 15 NW 1021,5 - 47 0,0

tt = temperature
td = dewpoint
tt 5cm = temperature 5cm
tt -20cm = temperature -20cm
tt -100cm = temperature -100cm
ff = wind speed
fx = gusts
dd = wind direction
ppp = reduced air pressure
vv = visibility
sd = sunshine duration
rr = precipitation

Next stations